Zurück zum Katalog

STARLINK-34831

AktivKommunikationVLEO
NORAD 65345·PAYLOAD·🇺🇸 United States

Gestartet Aug 27, 2025 von Cape Canaveral Space Force Station

Loading…

Nächste Überflüge (nächste 24 Stunden)

TLE

AktuellSource: CelesTrak SupGP

Epoche: Sep 14, 2026, 21:44 UTC

1 65345C 25189Y   26257.90604167  .00035674  00000+0  11476-2 0  2575
2 65345  53.1590  46.5392 0001116  76.4073 337.9855 15.31672725    13

Verfolge STARLINK-34831 in Echtzeit mit AllMySat

Download on the App Store